Overview Statistics Trail Chart Weather Telemetry Raw packets
 

This is the latest recevied weather packets stored in our database for station/object OK9CPU-9. If no packets are shown the sender has not sent any weather packets the latest 10 day(s).

<< 1 2 3 4 5 6 7 >>
Time Temp. Humidity Pressure Rain* Wind** Luminosity Snow
1788194853 26.11° C 32% 1015.1 hPa - - - -
1788183908 33.33° C 22% 1015.1 hPa - - - -
1788174952 28.89° C 23% 1015.9 hPa - - - -
1788165002 22.22° C 28% 1015.2 hPa - - - -
1788164007 22.22° C 28% 1015.1 hPa - - - -
1788163012 22.78° C 28% 1015.3 hPa - - - -
1788162017 23.33° C 27% 1015.1 hPa - - - -
1788161022 23.89° C 26% 1014.8 hPa - - - -
1788160027 24.44° C 25% 1014.9 hPa - - - -
1788154057 22.22° C 25% 1015 hPa - - - -
1788146096 17.78° C 31% 1014.7 hPa - - - -
1788144106 17.78° C 31% 1015 hPa - - - -
1788143111 17.78° C 31% 1015 hPa - - - -
1788141121 17.78° C 31% 1015 hPa - - - -
1788139131 17.78° C 32% 1015 hPa - - - -
1788136146 18.33° C 32% 1015.6 hPa - - - -
1788134156 17.78° C 33% 1015.7 hPa - - - -
1788133161 17.78° C 33% 1015.6 hPa - - - -
1788130176 18.33° C 33% 1015.9 hPa - - - -
1788129181 18.89° C 33% 1016 hPa - - - -
1788128188 18.89° C 33% 1016.1 hPa - - - -
1788127191 19.44° C 33% 1016 hPa - - - -
1788126196 19.44° C 33% 1015.8 hPa - - - -
1788125201 20° C 33% 1015.8 hPa - - - -
1788121221 21.67° C 33% 1015.6 hPa - - - -

* Rain since midnight (hover to see other rain measurements)
** Current wind speed in m/s (hover to see current wind gust speed)